TimeIST,TemperatureF,Dew PointF,Humidity,Sea Level PressureIn,VisibilityMPH,Wind Direction,Wind SpeedMPH,Gust SpeedMPH,PrecipitationIn,Events,Conditions,WindDirDegrees,DateUTC
12:00 AM,82.4,78.8,89,29.53,1.9,East,5.8,-,N/A,,Scattered Clouds,90,2013-07-23 18:30:00
1:00 AM,82.4,78.8,89,29.53,1.9,ESE,3.5,-,N/A,,Scattered Clouds,110,2013-07-23 19:30:00
2:00 AM,80.6,78.8,94,29.53,1.9,East,4.6,-,N/A,,Scattered Clouds,80,2013-07-23 20:30:00
2:30 AM,82,79,87,29.46,1,East,4.6,,,,Mist,90,2013-07-23 21:00:00
3:00 AM,82.4,78.8,89,29.53,1.9,ENE,4.6,-,N/A,,Scattered Clouds,70,2013-07-23 21:30:00
4:00 AM,82.4,78.8,89,29.53,1.9,ENE,4.6,-,N/A,,Scattered Clouds,70,2013-07-23 22:30:00
5:00 AM,82.4,78.8,89,29.53,1.9,ENE,5.8,-,N/A,,Scattered Clouds,70,2013-07-23 23:30:00
5:30 AM,82,79,88,29.46,1,NE,5.8,,,,Mist,50,2013-07-24 00:00:00
6:00 AM,82.4,78.8,89,29.53,1.9,NE,5.8,-,N/A,,Scattered Clouds,50,2013-07-24 00:30:00
7:00 AM,84.2,78.8,84,29.53,1.9,ENE,6.9,-,N/A,,Scattered Clouds,70,2013-07-24 01:30:00
8:00 AM,86.0,80.6,84,29.53,1.9,East,9.2,-,N/A,,Scattered Clouds,90,2013-07-24 02:30:00
8:30 AM,87,80,75,29.46,1,East,10.4,,,,Mist,90,2013-07-24 03:00:00
9:00 AM,87.8,80.6,79,29.53,1.9,East,9.2,-,N/A,,Partly Cloudy,90,2013-07-24 03:30:00
10:00 AM,89.6,80.6,75,29.56,2.2,ESE,9.2,-,N/A,,Haze,110,2013-07-24 04:30:00
11:00 AM,87.8,80.6,79,29.56,2.2,East,6.9,-,N/A,,Haze,80,2013-07-24 05:30:00
12:00 PM,93.2,80.6,67,29.56,2.2,East,6.9,-,N/A,,Haze,100,2013-07-24 06:30:00
1:00 PM,91.4,78.8,66,29.53,2.2,SSE,8.1,-,N/A,,Haze,150,2013-07-24 07:30:00
2:00 PM,91.4,78.8,66,29.50,2.2,East,5.8,-,N/A,,Haze,90,2013-07-24 08:30:00
2:30 PM,93,76,50,29.40,1,East,9.2,,,,Haze,90,2013-07-24 09:00:00
3:00 PM,95.0,78.8,59,29.47,2.2,East,8.1,-,N/A,,Haze,90,2013-07-24 09:30:00
4:00 PM,95.0,78.8,59,29.47,2.5,East,6.9,-,N/A,,Haze,100,2013-07-24 10:30:00
5:00 PM,93.2,77.0,59,29.44,2.5,East,6.9,-,N/A,,Haze,90,2013-07-24 11:30:00
5:30 PM,93,77,51,29.35,2,East,6.9,,,,Haze,90,2013-07-24 12:00:00
6:00 PM,93.2,78.8,63,29.44,2.5,East,6.9,-,N/A,,Haze,90,2013-07-24 12:30:00
7:00 PM,89.6,80.6,75,29.44,2.5,ESE,4.6,-,N/A,,Haze,110,2013-07-24 13:30:00
8:00 PM,89.6,78.8,70,29.47,2.2,Calm,Calm,-,N/A,,Haze,0,2013-07-24 14:30:00
8:30 PM,89,80,69,29.42,1,,2.3,,,,Haze,,2013-07-24 15:00:00
10:00 PM,86.0,80.6,84,29.53,1.9,ESE,4.6,-,N/A,,Scattered Clouds,110,2013-07-24 16:30:00
11:00 PM,84.2,78.8,84,29.53,1.9,SSW,8.1,-,N/A,,Scattered Clouds,200,2013-07-24 17:30:00
11:30 PM,84,79,82,29.44,1,SE,4.6,,,,Mist,140,2013-07-24 18:00:00